Flag for Lithuania Weather past 2 weeks in Vilnius, Lithuania

Now
41 °F

Partly cloudy.


Feels Like: 39 °F
Forecast: 51 / 66 °F
Wind: 3 mph from Southeast

Location: Vilnius Airport

Current Time: Apr 25, 2015 at 5:18:00 AM

Latest Report: Apr 25, 2015 at 4:50 AM


Visibility: N/A

Pressure: 29.89 "Hg

Humidity: 87%

Dew point: 37 °F

Location of VilniusLocation

Historic Weather in Vilnius — Graph

°F

Vilnius temperature yesterday

Maximum temperature yesterday: 55 °F (at 3:50 PM)
Minimum temperature yesterday: 43 °F (at 4:50 AM)
Average temperature yesterday: 49 °F

Past Weeks' High & Low Weather Summary

 TemperatureHumidityPressure
High66 °F (Apr 11, 3:50 PM)100% (Apr 11, 7:20 AM)30.18 "Hg (Apr 11, 7:20 AM)
Low32 °F (Apr 11, 6:50 AM)25% (Apr 14, 4:50 PM)29.36 "Hg (Apr 16, 4:50 AM)
Average44 °F69%29.86 "Hg
* Reported Apr 10 3:20 AM — Apr 25 3:50 AM, Vilnius, Weather by CustomWeather, © 2015

Note: Actual official high and low records may vary slightly from our data, if they occured in-between our weather recording intervals... More about our weather records

Advertising

Vilnius weather history for previous 24 hours

 ConditionsComfort  
Time TempWeatherWind HumidityBarometerVisibility
3:50 AM
Sat, Apr 25
39 °FPartly cloudy.3 mph87%29.89 "HgN/A
3:20 AM41 °FPartly cloudy.1 mph87%29.89 "HgN/A
2:50 AM41 °FPartly cloudy.2 mph81%29.86 "HgN/A
2:20 AM43 °FPartly cloudy.3 mph76%29.86 "HgN/A
1:50 AM45 °FPartly cloudy.3 mph76%29.86 "HgN/A
1:20 AM45 °FPassing clouds.5 mph76%29.86 "HgN/A
12:20 AM45 °FPassing clouds.10 mph76%29.86 "HgN/A
11:50 PM
Fri, Apr 24
46 °FPassing clouds.9 mph71%29.86 "HgN/A
11:20 PM46 °FPassing clouds.12 mph71%29.83 "HgN/A
10:50 PM46 °FPassing clouds.13 mph71%29.83 "HgN/A
10:20 PM48 °FPassing clouds.17 mph66%29.83 "HgN/A
9:50 PM50 °FPassing clouds.10 mph62%29.83 "HgN/A
9:20 PM50 °FPartly sunny.12 mph62%29.83 "HgN/A
8:50 PM50 °FPartly sunny.15 mph62%29.80 "HgN/A
8:20 PM52 °FBroken clouds.15 mph58%29.80 "HgN/A
7:50 PM52 °FBroken clouds.14 mph54%29.80 "HgN/A
7:20 PM54 °FBroken clouds.18 mph51%29.80 "HgN/A
6:50 PM54 °FBroken clouds.18 mph51%29.77 "HgN/A
6:20 PM54 °FBroken clouds.14 mph54%29.77 "HgN/A
5:50 PM55 °FBroken clouds.18 mph47%29.77 "HgN/A
5:20 PM55 °FBroken clouds.18 mph51%29.77 "HgN/A
4:50 PM55 °FPartly sunny.16 mph47%29.77 "HgN/A
4:20 PM55 °FPartly sunny.20 mph47%29.77 "HgN/A
3:50 PM55 °FPartly sunny.21 mph47%29.77 "HgN/A
3:20 PM54 °FPartly sunny.20 mph51%29.77 "HgN/A
2:50 PM54 °FPartly sunny.21 mph54%29.74 "HgN/A
2:20 PM54 °FPartly sunny.22 mph51%29.74 "HgN/A
1:50 PM54 °FPartly sunny.20 mph54%29.74 "HgN/A
1:20 PM54 °FPartly sunny.22 mph51%29.74 "HgN/A
12:50 PM52 °FPartly sunny.18 mph54%29.74 "HgN/A
12:20 PM52 °FPartly sunny.20 mph58%29.74 "HgN/A
11:50 AM52 °FPartly sunny.20 mph58%29.74 "HgN/A
11:20 AM52 °FPartly sunny.17 mph58%29.74 "HgN/A
10:50 AM50 °FPartly sunny.17 mph67%29.74 "HgN/A
10:20 AM50 °FPartly sunny.18 mph71%29.71 "HgN/A
9:50 AM48 °FPartly sunny.16 mph76%29.71 "HgN/A
9:20 AM48 °FPartly sunny.15 mph76%29.71 "HgN/A
8:50 AM46 °FPartly sunny.18 mph76%29.71 "HgN/A
8:20 AM46 °FPartly sunny.14 mph82%29.71 "HgN/A
7:50 AM46 °FOvercast.15 mph82%29.71 "HgN/A
7:20 AM46 °FOvercast.13 mph82%29.68 "Hg4 mi
6:50 AM45 °FOvercast.16 mph87%29.68 "Hg4 mi
6:20 AM45 °FOvercast.13 mph87%29.68 "Hg4 mi
5:50 AM45 °FOvercast.12 mph87%29.68 "HgN/A
5:20 AM45 °FOvercast.10 mph87%29.68 "HgN/A
Weather by CustomWeather, © 2015

See weather overviewHow to use our weather pages